Stations météo

réclame
Mon MeteoGroup
Beauvais, France (7055): Température de l'air & dewpoint: 11.06.2019 03:00:00 - 17.06.2019 03:00:00 (CEST)Beauvais, France (7055): Température de l'air 5cm: 11.06.2019 03:00:00 - 17.06.2019 03:00:00 (CEST)Beauvais, France (7055): Température de l'air -20cm & Température de l'air -100cm: 11.06.2019 03:00:00 - 17.06.2019 03:00:00 (CEST)Beauvais, France (7055): Vitesse du vent & gusts: 11.06.2019 03:00:00 - 17.06.2019 03:00:00 (CEST)Beauvais, France (7055): Direction du vent: 11.06.2019 03:00:00 - 17.06.2019 03:00:00 (CEST)Beauvais, France (7055): reduced air pressure: 11.06.2019 03:00:00 - 17.06.2019 03:00:00 (CEST)Beauvais, France (7055): visibility: 11.06.2019 03:00:00 - 17.06.2019 03:00:00 (CEST)Beauvais, France (7055): Ensoleillement: 11.06.2019 03:00:00 - 17.06.2019 03:00:00 (CEST)Beauvais, France (7055): Quantités de précipitations: 11.06.2019 03:00:00 - 17.06.2019 03:00:00 (CEST)
Date & Time tt [°C] td [°C] tt 5cm [°C] tt -20cm [°C] tt -100cm [°C] ff [km/h] ff [knt] fx [km/h] fx [knt] dd ppp [hPa] vv [km] sd [min] rr [mm]
17.06.2019 03:00:00 9,7 8,9 - - - 4 2 5 3 N 1020,9 23 - 0,0
17.06.2019 02:00:00 10,1 8,7 6,3 16,6 14,6 3 1 5 3 NNW 1021,1 24 0 0,0
17.06.2019 01:00:00 11,4 9,6 6,9 16,7 14,6 0 0 5 3 N 1021,0 27 0 0,0
17.06.2019 00:00:00 12,8 10,0 8,4 16,6 14,6 2 1 3 2 E 1021,1 28 0 0,0
16.06.2019 23:00:00 14,7 10,7 9,0 16,6 14,6 0 0 8 4 N 1021,0 29 0 0,0
16.06.2019 22:00:00 17,5 11,5 12,6 16,5 14,5 6 4 16 8 SSW 1020,6 34 0 0,0
16.06.2019 21:00:00 19,9 11,1 18,7 16,5 14,5 11 6 22 12 SW 1020,5 41 60 0,0
16.06.2019 20:00:00 21,1 11,7 21,3 16,4 14,5 14 7 29 16 SW 1020,4 32 55 0,0
16.06.2019 19:00:00 20,6 11,0 21,4 16,4 14,5 16 9 32 17 SW 1020,4 26 46 0,0
16.06.2019 18:00:00 21,2 12,3 22,3 16,3 14,5 18 10 32 17 S 1020,3 20 29 0,0
16.06.2019 17:00:00 21,4 13,1 23,5 16,3 14,5 22 12 35 19 S 1020,5 21 43 0,0
16.06.2019 16:00:00 20,9 10,7 25,6 16,3 14,5 22 12 33 18 SSW 1020,7 15 42 0,0
16.06.2019 15:00:00 21,2 12,9 23,2 16,2 14,5 22 12 37 20 S 1020,7 19 40 0,0
16.06.2019 14:00:00 20,1 13,1 21,5 16,3 14,5 22 12 36 19 SSW 1020,9 17 31 0,0
16.06.2019 13:00:00 19,4 12,9 22,1 16,3 14,5 17 9 33 18 SSW 1021,0 20 21 0,0
16.06.2019 12:00:00 18,7 12,4 20,0 16,3 14,5 18 10 35 19 SW 1021,0 21 24 0,0
16.06.2019 11:00:00 18,6 13,0 20,9 16,3 14,5 17 9 33 18 SW 1020,7 24 34 0,0
16.06.2019 10:00:00 17,1 12,6 19,4 16,4 14,5 16 9 24 13 SW 1020,9 32 16 0,0
16.06.2019 09:00:00 16,4 12,7 17,9 16,4 14,5 13 7 28 15 SW 1020,7 20 46 0,0
16.06.2019 08:00:00 14,7 12,6 14,2 16,4 14,5 11 6 22 12 SW 1020,3 18 26 0,0
16.06.2019 07:00:00 13,9 12,1 12,6 16,5 14,5 9 5 16 9 SSW 1019,7 26 27 0,0
16.06.2019 06:00:00 13,2 11,8 11,1 16,5 14,5 9 5 16 8 SSW 1019,4 31 0 0,0
16.06.2019 05:00:00 12,4 11,0 10,2 16,5 14,4 10 6 16 9 SSW 1019,2 32 0 0,0
16.06.2019 04:00:00 12,3 10,7 10,5 16,5 14,4 9 5 17 9 S 1019,2 34 0 0,0
16.06.2019 03:00:00 12,6 10,7 10,4 16,5 14,4 8 4 31 17 SSW 1018,8 39 0 0,0
16.06.2019 02:00:00 13,7 11,0 11,5 16,5 14,4 14 8 23 13 SW 1018,7 43 0 0,0
16.06.2019 01:00:00 14,1 10,9 12,0 16,5 14,4 11 6 23 13 SW 1018,4 45 0 0,0
16.06.2019 00:00:00 14,7 10,3 12,5 16,4 14,4 10 6 18 10 SSW 1018,2 40 0 0,0
15.06.2019 23:00:00 15,3 9,9 12,6 16,4 14,4 10 5 19 10 SSW 1017,9 42 0 0,0
15.06.2019 22:00:00 16,1 9,7 13,7 16,3 14,4 10 6 27 15 SSW 1017,4 41 5 0,0
15.06.2019 21:00:00 18,2 9,0 17,4 16,3 14,4 21 11 35 19 SW 1016,8 14 55 0,0
15.06.2019 20:00:00 19,2 9,7 20,2 16,3 14,4 18 10 38 20 SW 1016,6 15 60 0,0
15.06.2019 19:00:00 19,9 9,5 22,6 16,2 14,4 24 13 44 24 SW 1016,1 19 58 0,0
15.06.2019 18:00:00 20,7 9,3 21,2 16,1 14,4 28 15 43 23 WSW 1016,1 19 39 0,0
15.06.2019 17:00:00 21,1 9,7 22,2 16,1 14,4 22 12 42 23 SW 1016,2 20 41 0,0
15.06.2019 16:00:00 20,7 10,5 22,1 16,0 14,4 19 10 31 17 WSW 1016,2 32 26 0,0
15.06.2019 15:00:00 19,9 9,5 22,7 16,0 14,4 21 11 35 19 SW 1016,0 23 29 0,0
15.06.2019 14:00:00 20,8 10,3 21,8 16,0 14,4 19 11 33 18 SSW 1016,1 36 49 0,0
15.06.2019 13:00:00 19,7 10,4 22,9 16,0 14,4 16 9 30 16 SSW 1015,7 43 35 0,0
15.06.2019 12:00:00 19,1 10,6 22,3 16,0 14,4 18 10 34 18 SW 1015,5 20 45 0,0
15.06.2019 11:00:00 18,3 11,1 23,1 16,0 14,4 16 9 27 15 WSW 1015,2 26 51 0,0
15.06.2019 10:00:00 17,6 12,3 22,1 16,1 14,4 15 8 25 14 SW 1014,8 29 60 0,0
15.06.2019 09:00:00 - - - - - - - - - - - - - -
15.06.2019 08:00:00 15,8 13,1 11,6 16,1 14,4 0 0 4 2 N 1013,6 35 57 0,0
15.06.2019 07:00:00 12,7 11,4 7,3 16,1 14,4 2 1 10 5 NNW 1013,3 34 27 0,0
15.06.2019 06:00:00 11,9 10,6 7,3 16,1 14,4 5 3 8 4 W 1012,9 34 0 0,0
15.06.2019 05:00:00 13,2 11,1 11,2 16,1 14,3 6 3 12 7 W 1012,6 46 0 0,0
15.06.2019 04:00:00 14,4 12,1 13,8 16,1 14,3 8 4 11 6 W 1012,4 47 0 0,0
15.06.2019 03:00:00 14,4 12,1 13,6 16,0 14,3 4 2 12 6 WNW 1012,2 47 0 0,0
15.06.2019 02:00:00 14,5 12,2 13,7 16,0 14,3 10 6 14 8 WNW 1012,0 47 0 0,0
15.06.2019 01:00:00 14,8 12,5 14,0 16,0 14,3 11 6 16 9 WNW 1012,1 44 0 0,0
15.06.2019 00:00:00 15,9 13,2 14,9 15,9 14,3 10 5 21 11 NW 1011,8 47 0 0,0
14.06.2019 23:00:00 17,7 13,6 16,2 15,8 14,3 8 4 13 7 NW 1012,0 21 0 0,0
14.06.2019 22:00:00 18,3 13,4 15,9 15,8 14,4 3 1 7 4 WNW 1011,9 49 0 0,0
14.06.2019 21:00:00 19,7 12,9 18,8 15,7 14,3 7 4 14 7 WSW 1011,8 19 1 0,0
14.06.2019 20:00:00 20,9 12,3 21,6 15,6 14,4 7 4 20 11 SSW 1011,7 38 10 0,0
14.06.2019 19:00:00 21,5 12,6 23,5 15,5 14,3 10 5 20 11 S 1011,5 20 38 0,0
14.06.2019 18:00:00 22,6 13,1 26,2 15,4 14,4 11 6 24 13 SSE 1011,5 18 51 0,0
14.06.2019 17:00:00 22,1 12,9 24,3 15,4 14,3 11 6 26 14 SW 1012,3 18 50 0,0
14.06.2019 16:00:00 20,7 11,9 24,1 15,3 14,3 13 7 28 15 S 1012,7 17 44 0,0
14.06.2019 15:00:00 21,0 12,2 23,7 15,3 14,3 15 8 30 16 SSW 1013,3 18 39 0,0
14.06.2019 14:00:00 20,1 11,6 22,3 15,3 14,3 15 8 31 17 SSE 1014,0 20 25 0,0
14.06.2019 13:00:00 20,0 11,7 25,2 15,3 14,4 14 8 27 15 S 1014,0 33 45 0,0
14.06.2019 12:00:00 18,9 11,0 23,3 15,3 14,3 14 8 26 14 SSW 1014,1 20 48 0,0
14.06.2019 11:00:00 18,5 10,6 24,8 15,4 14,3 15 8 24 13 S 1013,6 37 60 0,0
14.06.2019 10:00:00 17,0 10,8 21,7 15,4 14,3 4 2 14 8 SSW 1013,5 37 60 0,0
14.06.2019 09:00:00 14,7 10,5 14,2 15,4 14,3 5 3 11 6 W 1013,3 27 48 0,0
14.06.2019 08:00:00 12,1 11,6 11,4 15,5 14,3 5 3 8 5 W 1013,2 20 5 0,0
14.06.2019 07:00:00 11,1 10,6 10,3 15,5 14,3 0 0 5 3 N 1012,9 24 0 0,0
14.06.2019 06:00:00 10,3 9,8 9,0 15,5 14,3 3 2 5 3 E 1013,0 14 0 0,0
14.06.2019 05:00:00 9,3 8,5 8,5 15,6 14,3 0 0 4 2 N 1012,8 10 0 0,0
14.06.2019 04:00:00 9,2 8,6 7,2 15,6 14,3 2 1 5 3 NNW 1012,6 19 0 0,0
14.06.2019 03:00:00 8,7 8,1 6,0 15,6 14,3 0 0 6 4 N 1012,2 26 0 0,0
14.06.2019 02:00:00 8,2 7,3 4,6 15,6 14,3 6 3 7 4 N 1012,5 30 0 0,0
14.06.2019 01:00:00 9,0 7,6 5,9 15,6 14,3 4 2 6 3 N 1012,7 34 0 0,0
14.06.2019 00:00:00 11,4 8,8 7,1 15,6 14,3 2 1 4 2 SSE 1012,6 38 0 0,0
13.06.2019 23:00:00 12,5 9,0 8,7 15,5 14,3 4 2 12 6 SE 1012,4 46 0 0,0
13.06.2019 22:00:00 15,2 10,2 12,5 15,5 14,3 10 6 17 9 SW 1011,7 57 3 0,0
13.06.2019 21:00:00 17,2 10,1 16,2 15,5 14,4 10 5 28 15 SSW 1011,1 53 26 0,0
13.06.2019 20:00:00 18,0 10,1 17,7 15,5 14,3 17 9 32 17 SW 1010,6 52 35 0,0
13.06.2019 19:00:00 19,2 10,5 19,0 15,4 14,3 21 11 34 19 SW 1010,2 58 37 0,0
13.06.2019 18:00:00 19,2 12,0 19,4 15,4 14,3 16 9 32 18 SW 1010,3 46 38 0,0
13.06.2019 17:00:00 17,7 11,9 16,5 15,4 14,3 15 8 35 19 WSW 1010,3 60 7 0,0
13.06.2019 16:00:00 16,4 11,1 14,3 15,4 14,3 26 14 48 26 S 1010,8 7 26 1,2
13.06.2019 15:00:00 15,7 11,1 13,8 15,4 14,3 26 14 45 24 SSW 1010,8 9 10 0,6
13.06.2019 14:00:00 15,9 11,1 15,9 15,4 14,3 26 14 49 27 SSW 1010,9 17 7 0,0
13.06.2019 13:00:00 14,6 12,1 13,4 15,5 14,3 27 14 50 27 SSW 1011,0 14 12 0,4
13.06.2019 12:00:00 14,3 11,4 13,4 15,5 14,3 26 14 39 21 S 1011,3 11 25 0,0
13.06.2019 11:00:00 12,6 11,2 12,9 15,5 14,3 21 11 33 18 S 1011,6 10 0 0,6
13.06.2019 10:00:00 12,5 10,7 13,0 15,5 14,3 18 10 33 18 S 1011,3 14 0 0,2
13.06.2019 09:00:00 12,4 10,5 13,3 15,6 14,3 19 10 31 17 S 1011,3 39 25 0,0
13.06.2019 08:00:00 11,4 10,0 11,1 15,6 14,3 15 8 25 14 S 1010,9 37 43 0,0
13.06.2019 07:00:00 10,8 9,6 9,8 15,6 14,3 13 7 24 13 SSW 1011,0 25 21 0,0
13.06.2019 06:00:00 10,4 9,2 9,8 15,6 14,3 10 6 21 11 S 1010,7 32 0 0,0
13.06.2019 05:00:00 10,8 9,6 10,0 15,7 14,3 12 7 22 12 S 1010,4 42 0 0,0
13.06.2019 04:00:00 10,8 9,7 9,1 15,7 14,3 12 6 24 13 S 1010,2 55 0 0,0
13.06.2019 03:00:00 10,5 9,4 9,1 15,7 14,3 14 8 24 13 SSW 1010,1 60 0 0,0
13.06.2019 02:00:00 10,9 9,8 9,7 15,7 14,3 9 5 21 11 SSW 1010,2 60 0 0,0
13.06.2019 01:00:00 11,3 10,0 10,2 15,7 14,3 14 7 24 13 SSW 1009,9 59 0 0,0
13.06.2019 00:00:00 11,8 10,4 10,4 15,7 14,3 12 7 21 11 SSW 1009,7 60 0 0,0
12.06.2019 23:00:00 11,3 10,0 10,0 15,6 14,3 7 4 14 7 ESE 1009,6 50 0 0,0
12.06.2019 22:00:00 12,7 10,9 11,8 15,6 14,3 10 6 27 14 SSE 1009,2 54 0 0,2
12.06.2019 21:00:00 14,2 10,0 13,9 15,6 14,3 17 9 29 16 S 1008,7 19 46 0,0
12.06.2019 20:00:00 15,5 11,1 14,7 15,5 14,3 14 8 23 12 S 1008,4 44 9 0,0
12.06.2019 19:00:00 15,2 10,6 15,8 15,5 14,3 16 9 22 12 SSE 1008,1 46 14 0,0
12.06.2019 18:00:00 15,7 9,8 13,7 15,5 14,3 7 4 16 9 SSE 1008,8 45 49 0,0
12.06.2019 17:00:00 12,6 10,3 11,8 15,4 14,3 10 5 44 24 SE 1009,4 24 13 0,2
12.06.2019 16:00:00 13,2 10,2 12,5 15,4 14,3 18 10 32 17 SE 1009,3 4,8 1 1,6
12.06.2019 15:00:00 15,9 9,1 17,4 15,4 14,3 15 8 29 15 SSE 1009,1 24 9 0,0
12.06.2019 14:00:00 17,2 10,1 19,2 15,4 14,3 17 9 29 16 SSE 1009,0 21 28 0,0
12.06.2019 13:00:00 15,9 9,8 18,2 15,4 14,3 14 7 29 16 S 1009,3 20 37 0,0
12.06.2019 12:00:00 14,8 10,8 17,1 15,5 14,3 12 7 20 11 S 1009,6 27 21 0,0
12.06.2019 11:00:00 12,7 10,9 13,4 15,5 14,3 10 6 18 10 S 1009,6 20 0 0,0
12.06.2019 10:00:00 12,3 11,4 12,9 15,5 14,3 7 4 14 8 SSE 1009,9 17 0 0,0
12.06.2019 09:00:00 11,6 11,0 12,5 15,6 14,3 10 5 14 7 SSE 1009,8 14 0 0,0
12.06.2019 08:00:00 11,1 10,8 10,5 15,6 14,3 4 2 7 4 S 1009,5 12 7 0,0
12.06.2019 07:00:00 9,9 9,6 8,9 15,6 14,3 0 0 3 2 N 1010,0 1,2 0 0,0
12.06.2019 06:00:00 9,4 8,9 6,9 15,6 14,3 2 1 7 4 SE 1009,9 0,2 0 0,0
12.06.2019 05:00:00 9,0 8,1 5,7 15,6 14,3 3 1 9 5 ESE 1009,7 0,8 0 0,2
12.06.2019 04:00:00 10,4 9,6 9,3 15,6 14,3 6 3 8 5 ENE 1009,9 20 0 0,0
12.06.2019 03:00:00 11,2 10,6 10,7 15,7 14,3 5 3 6 4 NNW 1010,2 17 0 0,0
12.06.2019 02:00:00 11,2 10,4 10,8 15,6 14,3 6 3 8 5 NNE 1010,7 28 0 0,2
12.06.2019 01:00:00 11,5 10,4 10,7 15,6 14,3 2 1 6 4 ESE 1011,3 9 0 0,4
12.06.2019 00:00:00 11,6 10,2 11,0 15,6 14,3 5 3 13 7 NNE 1011,4 16 0 1,2
11.06.2019 23:00:00 12,3 10,5 11,5 15,6 14,3 3 2 9 5 NNE 1011,6 8 0 0,6
11.06.2019 22:00:00 12,8 10,2 12,0 15,5 14,3 6 3 16 8 S 1012,0 45 0 0,0
11.06.2019 21:00:00 14,2 10,0 14,5 15,5 14,3 9 5 18 10 SW 1011,5 9 0 0,0
11.06.2019 20:00:00 15,1 9,5 15,1 15,4 14,3 10 5 25 14 SW 1011,2 18 0 0,0
11.06.2019 19:00:00 17,3 9,7 17,2 15,4 14,3 6 3 13 7 SE 1010,7 20 15 0,0
11.06.2019 18:00:00 19,4 7,5 19,9 15,3 14,3 2 1 8 4 SSW 1010,6 18 30 0,0
11.06.2019 17:00:00 17,5 8,1 18,9 15,3 14,3 5 3 14 8 SE 1011,2 45 2 0,0
11.06.2019 16:00:00 17,7 8,0 21,0 15,3 14,3 8 4 32 17 SSE 1011,4 36 31 0,0
11.06.2019 15:00:00 18,3 9,4 19,3 15,3 14,3 11 6 20 11 ESE 1011,3 33 25 0,0
11.06.2019 14:00:00 16,9 7,8 20,6 15,3 14,3 8 4 19 11 SE 1011,8 20 19 0,0
11.06.2019 13:00:00 17,1 7,7 23,0 15,4 14,3 11 6 23 12 SSE 1011,9 21 53 0,0
11.06.2019 12:00:00 15,9 9,1 18,0 15,4 14,3 11 6 24 13 SSE 1012,1 24 26 0,0
11.06.2019 11:00:00 15,6 10,6 16,0 15,5 14,3 10 5 26 14 SE 1012,1 10 51 0,0
11.06.2019 10:00:00 12,7 9,5 15,9 15,6 14,3 11 6 16 9 ESE 1012,1 11 37 0,0
11.06.2019 09:00:00 11,8 10,5 11,4 15,6 14,2 10 5 14 7 ESE 1012,1 9 54 0,0
11.06.2019 08:00:00 8,9 8,6 6,5 15,6 14,2 8 5 12 7 ESE 1012,3 5 54 0,0
11.06.2019 07:00:00 6,9 6,8 0,9 15,8 14,3 4 2 8 4 E 1012,4 0,3 27 0,0
11.06.2019 06:00:00 4,2 3,6 1,1 15,8 14,3 2 1 9 5 ENE 1012,5 4,7 0 0,0
11.06.2019 05:00:00 5,4 5,0 1,6 15,8 14,3 2 1 8 5 S 1012,2 11 0 0,0
11.06.2019 04:00:00 5,8 5,2 2,2 15,9 14,3 9 5 12 7 E 1012,7 8 0 0,0
11.06.2019 03:00:00 6,4 5,7 2,5 15,9 14,2 0 0 10 5 N 1012,6 13 0 0,0

tt = Température de l'air
td = dewpoint
tt 5cm = Température de l'air 5cm
tt -20cm = Température de l'air -20cm
tt -100cm = Température de l'air -100cm
ff = Vitesse du vent
fx = gusts
dd = Direction du vent
ppp = reduced air pressure
vv = visibility
sd = Ensoleillement
rr = Quantités de précipitations

stations d'obs. à proximité